Regional Weather Roundup
Issued by NWS

Home | Current Version | Previous Version | Text Only | Print | Product List | Glossary On
Versions: 1 2 3 4 5 6 7 8 9 10 11 12 13 14 15 16 17 18 19 20 21 22 23 24 25 26 27
000
ASUS45 KBOU 241207
RWRCO

WEATHER ROUNDUP FOR COLORADO
NATIONAL WEATHER SERVICE DENVER/BOULDER CO
600 AM MDT SUN JUL 24 2016

NOTE: "FAIR" INDICATES FEW OR NO CLOUDS BELOW 12000 FEET WITH NO
SIGNIFICANT WEATHER AND/OR OBSTRUCTIONS TO VISIBILITY.

COZ001>005-013-030-031-241300-
...NORTHWEST COLORADO...

CITY           SKY/WX    TMP DP  RH WIND       PRES   REMARKS
CRAIG          FAIR      50  39  66 CALM      30.24R
HAYDEN         FAIR      57  39  51 E10       30.26R
MEEKER         FAIR      53  44  71 CALM      30.24R
MOUNT WERNER   NOT AVBL
STEAMBOAT SPGS FAIR      54  41  62 E7        30.29R
WALDEN         FAIR      52  36  54 S6        30.38R
$$

COZ006>008-011-241300-
...WEST CENTRAL VALLEYS...

CITY           SKY/WX    TMP DP  RH WIND       PRES   REMARKS
GRAND JUNCTION FAIR      74  41  30 CALM      30.10R
MONTROSE       FAIR      68  42  38 SE9       30.22S
EAGLE          FAIR      57  43  58 SE6       30.33R
RIFLE          FAIR      68  43  40 SE13      30.18F
DELTA          FAIR      70  45  39 CALM      30.19R
NUCLA          FAIR      70  41  35 S8        30.23R
$$

COZ017>023-064>068-241300-
...SOUTHWEST COLORADO...

CITY           SKY/WX    TMP DP  RH WIND       PRES   REMARKS
DURANGO        FAIR      58  43  57 CALM      30.26R
CORTEZ         FAIR      61  43  51 NE5       30.19S
PAGOSA SPRINGS FAIR      56  42  60 CALM      30.35R
TELLURIDE      MOCLDY    58  38  47 CALM      30.51R
WOLF CREEK PAS FAIR      50  37  62 SW10      30.69S
$$

COZ009-010-012-014-032>034-037-058>063-241300-
...CENTRAL COLORADO...

CITY           SKY/WX    TMP DP  RH WIND       PRES   REMARKS
ASPEN          CLOUDY    56  46  69 VRB3      30.40R
BUENA VISTA    FAIR      54  41  60 CALM      30.41R
COPPER MTN     MOCLDY    54  32  43 S8        30.68S
BERTHOUD PASS  FAIR      43  30  61 CALM      30.71S
COTTONWOOD PAS FAIR      59  39  47 SW6       30.53R
GUNNISON       FAIR      48  41  76 S6        30.42R
KREMMLING      FAIR      52  45  76 CALM      30.38R
LEADVILLE      FAIR      44  39  82 N6        30.53R
MONARCH PASS   FAIR      52  36  54 MISG      30.78R
SALIDA         FAIR      58  46  64 CALM      30.45R
SUNLIGHT       MOCLDY    54  36  50 N9        30.64R
WILKERSON PASS FAIR      50  37  62 W8        30.66R
$$

COZ069>075-241300-
...SAN LUIS VALLEY/SANGRE DE CRISTO MOUNTAINS...

CITY           SKY/WX    TMP DP  RH WIND       PRES   REMARKS
ALAMOSA        FAIR      56  48  74 NE7       30.34R
LA VETA PASS   FAIR      54  41  62 S3        30.54R
SAGUACHE       FAIR      54  41  62 N10       30.38R
$$

COZ035-036-038>040-241300-
...NORTHERN COLORADO FRONT RANGE...

CITY           SKY/WX    TMP DP  RH WIND       PRES   REMARKS
DENVER INTL AP MOCLDY    66  52  60 W8        30.18R
DMNS CITY PARK   N/A     63  51  64 E2        30.18S
AURORA         MOCLDY    65  51  59 W5        30.20R
FRONT RANGE AP NOT AVBL
ERIE MUNI ARPT FAIR      62  54  73 SE5       30.16F
BOULDER MUN AP FAIR      64  50  59 SE5       30.15F
CENTENNIAL     MOCLDY    70  46  42 SW8       30.21R
BROOMFIELD     FAIR      63  48  59 W5        30.20S
LONGMONT       FAIR      65  55  68 W5        30.17F
$$

COZ041-046-047-076>085-087-088-241300-
...PIKES PEAK/PALMER DIVIDE AND SOUTHERN FOOTHILLS...

CITY           SKY/WX    TMP DP  RH WIND       PRES   REMARKS
COLO. SPRINGS  MOCLDY    63  51  65 NW6       30.27R
A. F. ACADEMY  FAIR      58  49  73 E8        30.28R
SCHRIEVER AFB  NOT AVBL
ELLICOTT       FAIR     N/A N/A N/A CALM      30.23R
FALCON         FAIR      57  49  76 NW6       30.31R
FORT CARSON    FAIR      62  51  67 NW9       30.22R
LIMON          FAIR      57  55  93 N3        30.18R
MONUMENT HILL  FAIR      57  48  72 SW9       30.33R
TRINIDAD       NOT AVBL
$$

COZ042>045-048>051-090-091-241300-
...NORTHEAST COLORADO...

CITY           SKY/WX    TMP DP  RH WIND       PRES   REMARKS
GREELEY ARPT   FAIR      63  55  77 CALM      30.16R
AKRON          FAIR      62  55  77 N6        30.15R
BURLINGTON     FAIR      69  59  70 CALM      30.09R
WRAY           FAIR      66  59  77 CALM      30.08R
STERLING       FAIR      63  59  88 CALM      30.11R
HOLYOKE        FAIR      64  59  82 W9        30.10R
FORT MORGAN    FAIR      58  52  81 E6        30.15R
$$

COZ086-089-092>099-241300-
...SOUTHEAST COLORADO...

CITY           SKY/WX    TMP DP  RH WIND       PRES   REMARKS
PUEBLO         FAIR      68  54  60 CALM      30.14R
LA JUNTA       MOCLDY    69  62  78 CALM      30.11R
LAMAR          MOCLDY    67  64  90 NW7       30.06R
SPRINGFIELD      N/A     67  58  72 NW7       30.10R
$$




USA.gov is the U.S. government's official web portal to all federal, state and local government web resources and services.